Flag for Germany Weather past 2 weeks in Neustadt am Rübenberge, Lower Saxony, Germany

Now
63 °F

Mild.


Feels Like: 63 °F
Forecast: 60 / 70 °F
Wind: 3 mph from South

Location: Wunstorf Airport

Current Time: Sep 20, 2014 at 12:06:51 AM

Latest Report: Sep 19, 2014 at 11:20 PM


Visibility: 4 mi

Pressure: 29.92 "Hg

Humidity: 100%

Dew point: 63 °F

Location of Neustadt am RübenbergeLocation

Historic Weather in Neustadt am Rübenberge — Graph

°F

Neustadt am Rübenberge temperature yesterday

Maximum temperature yesterday: 72 °F (at 3:20 PM)
Minimum temperature yesterday: 59 °F (at 12:04 AM)
Average temperature yesterday: 65 °F

Past Weeks' High & Low Weather Summary

 TemperatureHumidityPressure
High77 °F (Sep 5, 3:20 PM)100% (Sep 5, 11:20 PM)30.21 "Hg (Sep 5, 11:20 PM)
Low48 °F (Sep 12, 4:20 AM)50% (Sep 12, 3:20 PM)29.86 "Hg (Sep 6, 4:20 PM)
Average62 °F83%30.03 "Hg
* Reported Sep 4 10:20 PM — Sep 19 10:20 PM, Neustadt am Rübenberge, Weather by CustomWeather, © 2014

Note: Actual official high and low records may vary slightly from our data, if they occured in-between our weather recording intervals... More about our weather records

Advertising

Neustadt am Rübenberge weather history for previous 24 hours

 ConditionsComfort  
Time TempWeatherWind HumidityBarometerVisibility
10:20 PM
Sep 19
63 °FMild.3 mph94%29.89 "Hg4 mi
9:20 PM64 °FMild.5 mph94%29.89 "Hg5 mi
8:20 PM64 °FMild.6 mph94%29.89 "Hg6 mi
7:20 PM68 °FMild.5 mph83%29.89 "Hg6 mi
6:20 PM68 °FMild.5 mph83%29.86 "Hg4 mi
5:20 PM72 °FMild.6 mph73%29.89 "HgN/A
4:20 PM72 °FBroken clouds.7 mph73%29.89 "HgN/A
3:20 PM72 °FPartly sunny.5 mph73%29.89 "HgN/A
2:20 PM70 °FPartly sunny.7 mph73%29.89 "HgN/A
1:20 PM70 °FPartly sunny.12 mph73%29.89 "HgN/A
12:20 PM68 °FPartly sunny.10 mph73%29.89 "HgN/A
11:20 AM66 °FBroken clouds.7 mph83%29.92 "HgN/A
10:20 AM66 °FPartly sunny.7 mph83%29.92 "HgN/A
8:20 AM63 °FPartly sunny.3 mph88%29.89 "HgN/A
7:20 AM61 °FPassing clouds.7 mph94%29.86 "HgN/A
6:20 AM61 °FPassing clouds.1 mph94%29.86 "HgN/A
5:20 AM61 °FPartly cloudy.5 mph94%29.89 "HgN/A
4:20 AM61 °FCool.6 mph94%29.89 "Hg4 mi
3:20 AM61 °FCool.2 mph94%29.89 "Hg4 mi
2:20 AM61 °FCool.3 mph88%29.89 "Hg4 mi
1:20 AM59 °FCool.No wind94%29.92 "Hg4 mi
12:20 AM59 °FCool.1 mph94%29.89 "Hg3 mi
12:04 AM59 °FPassing clouds.No wind94%29.92 "HgN/A
Weather by CustomWeather, © 2014

See weather overviewHow to use our weather pages